Weather History for Fort Polk, LA

Change the Weather History Date:

Monday, April 22, 2013

  Actual Average (KPOE) Record (KPOE)
Temperature  
Mean Temperature 62 °F -  
Max Temperature 79 °F 76 °F 87 °F (2009)
Min Temperature 45 °F 56 °F 46 °F (1998)
Degree Days  
Heating Degree Days 3    
Growing Degree Days 12 (Base 50)    
Moisture  
Dew Point 47 °F    
Average Humidity 65    
Maximum Humidity 93    
Minimum Humidity 31    
Precipitation  
Precipitation 0.00 in - - ()
Sea Level Pressure  
Sea Level Pressure 30.05 in    
Wind  
Wind Speed 1 mph (SE)    
Max Wind Speed 7 mph    
Max Gust Speed -    
Visibility 9 miles    
Events      
Averages and records for this station are not official NWS values.
T = Trace of Precipitation, MM = Missing Value Source: NWS Daily Summary

Daily Weather History Graph

Daily Weather History Graph

Search for Another Location

Airport:

Trip Planner

Search our weather history database for the weather conditions in past years. The results will help you decide how hot, cold, wet, or windy it might be!

Date:

Astronomy

Apr. 22, 2013 Rise Set
Actual Time 6:36 AM CDT 7:46 PM CDT
Civil Twilight 6:11 AM CDT 8:12 PM CDT
Nautical Twilight 5:41 AM CDT 8:42 PM CDT
Astronomical Twilight 5:10 AM CDT 9:13 PM CDT
Moon 4:47 PM CDT (4/22) 4:19 AM CDT (4/22)
Length of Visible Light 14h 00m
Length of Day
13h 09m
Waxing Gibbous, 88% of the Moon is Illuminated
Apr 22
Waxing Gibbous
Apr 25
Full
May 2
Last Quarter
May 9
New
May 17
First Quarter

Hourly Weather History & Observations

Time (CDT) Temp. Dew Point Humidity Pressure Visibility Wind Dir Wind Speed Gust Speed Precip Events Conditions
12:56 AM 48.9 °F 46.0 °F 90% 30.14 in 6.0 mi Calm Calm - N/A   Clear
1:56 AM 48.0 °F 45.0 °F 89% 30.12 in 10.0 mi Calm Calm - N/A   Clear
2:56 AM 46.9 °F 45.0 °F 93% 30.12 in 7.0 mi Calm Calm - N/A   Clear
3:56 AM 46.9 °F 44.1 °F 90% 30.11 in 9.0 mi Calm Calm - N/A   Clear
4:56 AM 46.0 °F 43.0 °F 89% 30.10 in 6.0 mi Calm Calm - N/A   Clear
5:56 AM 45.0 °F 43.0 °F 93% 30.10 in 6.0 mi Calm Calm - N/A   Clear
6:56 AM 45.0 °F 43.0 °F 93% 30.11 in 7.0 mi Calm Calm - N/A   Clear
7:56 AM 54.0 °F 48.0 °F 80% 30.12 in 10.0 mi Calm Calm - N/A   Clear
8:56 AM 62.1 °F 48.9 °F 62% 30.12 in 10.0 mi Calm Calm - N/A   Clear
9:56 AM 71.1 °F 48.0 °F 44% 30.12 in 10.0 mi Calm Calm - N/A   Clear
10:56 AM 73.0 °F 44.1 °F 35% 30.12 in 10.0 mi Calm Calm - N/A   Clear
12:56 PM 75.0 °F 43.0 °F 32% 30.08 in 10.0 mi Variable 4.6 mph - N/A   Clear
1:56 PM 77.0 °F 46.0 °F 33% 30.05 in 10.0 mi Calm Calm - N/A   Clear
2:56 PM 78.1 °F 45.0 °F 31% 30.02 in 10.0 mi Variable 6.9 mph - N/A   Clear
3:56 PM 78.1 °F 46.0 °F 32% 29.99 in 10.0 mi SE 4.6 mph - N/A   Clear
4:56 PM 79.0 °F 46.9 °F 32% 29.98 in 10.0 mi Variable 5.8 mph - N/A   Clear
5:56 PM 78.1 °F 46.9 °F 33% 29.97 in 10.0 mi Variable 4.6 mph - N/A   Clear
6:56 PM 75.9 °F 48.9 °F 38% 29.96 in 10.0 mi Variable 3.5 mph - N/A   Clear
7:56 PM 66.0 °F 55.0 °F 68% 29.96 in 10.0 mi Calm Calm - N/A   Clear
8:56 PM 62.1 °F 53.1 °F 72% 29.98 in 10.0 mi Calm Calm - N/A   Clear
9:56 PM 57.9 °F 53.1 °F 84% 29.99 in 10.0 mi Calm Calm - N/A   Clear
10:56 PM 55.9 °F 53.1 °F 90% 29.99 in 10.0 mi Calm Calm - N/A   Clear
11:56 PM 57.9 °F 53.1 °F 84% 29.99 in 10.0 mi Calm Calm - N/A   Clear